<?xml version="1.0"?>
<gpx xmlns="http://www.topografix.com/GPX/1/1" xmlns:xsi="http://www.w3.org/2001/XMLSchema-instance" version="1.1" creator="GPX RubyGem 1.0.0 -- http://dougfales.github.io/gpx/" xsi:schemaLocation="http://www.topografix.com/GPX/1/1 http://www.topografix.com/GPX/1/1/gpx.xsd">
  <metadata>
    <name/>
    <time>2026-05-10T22:00:10+00:00</time>
    <bound minlat="90.0" minlon="180.0" maxlat="-90.0" maxlon="-180.0"/>
  </metadata>
  <trk>
    <name/>
    <trkseg>
      <trkpt lat="50.093915" lon="14.417385">
        <time>1970-01-01T00:00:00+00:00</time>
        <ele>188.0</ele>
      </trkpt>
      <trkpt lat="50.093878" lon="14.417118">
        <time>1970-01-01T00:00:00+00:00</time>
        <ele>190.0</ele>
      </trkpt>
      <trkpt lat="50.093822" lon="14.416861">
        <time>1970-01-01T00:00:00+00:00</time>
        <ele>191.0</ele>
      </trkpt>
      <trkpt lat="50.0938" lon="14.416879">
        <time>1970-01-01T00:00:00+00:00</time>
        <ele>190.0</ele>
      </trkpt>
      <trkpt lat="50.093793" lon="14.416856">
        <time>1970-01-01T00:00:00+00:00</time>
        <ele>190.0</ele>
      </trkpt>
      <trkpt lat="50.093753" lon="14.416727">
        <time>1970-01-01T00:00:00+00:00</time>
        <ele>190.0</ele>
      </trkpt>
      <trkpt lat="50.093743" lon="14.416691">
        <time>1970-01-01T00:00:00+00:00</time>
        <ele>190.0</ele>
      </trkpt>
      <trkpt lat="50.09376" lon="14.41668">
        <time>1970-01-01T00:00:00+00:00</time>
        <ele>190.0</ele>
      </trkpt>
      <trkpt lat="50.093831" lon="14.416697">
        <time>1970-01-01T00:00:00+00:00</time>
        <ele>192.0</ele>
      </trkpt>
      <trkpt lat="50.093883" lon="14.416743">
        <time>1970-01-01T00:00:00+00:00</time>
        <ele>194.0</ele>
      </trkpt>
      <trkpt lat="50.093897" lon="14.416765">
        <time>1970-01-01T00:00:00+00:00</time>
        <ele>194.0</ele>
      </trkpt>
      <trkpt lat="50.093909" lon="14.416758">
        <time>1970-01-01T00:00:00+00:00</time>
        <ele>195.0</ele>
      </trkpt>
      <trkpt lat="50.093921" lon="14.416752">
        <time>1970-01-01T00:00:00+00:00</time>
        <ele>195.0</ele>
      </trkpt>
      <trkpt lat="50.094002" lon="14.416706">
        <time>1970-01-01T00:00:00+00:00</time>
        <ele>199.0</ele>
      </trkpt>
      <trkpt lat="50.094023" lon="14.416695">
        <time>1970-01-01T00:00:00+00:00</time>
        <ele>200.0</ele>
      </trkpt>
      <trkpt lat="50.094033" lon="14.41669">
        <time>1970-01-01T00:00:00+00:00</time>
        <ele>200.0</ele>
      </trkpt>
      <trkpt lat="50.093962" lon="14.416442">
        <time>1970-01-01T00:00:00+00:00</time>
        <ele>199.0</ele>
      </trkpt>
      <trkpt lat="50.094021" lon="14.416403">
        <time>1970-01-01T00:00:00+00:00</time>
        <ele>202.0</ele>
      </trkpt>
      <trkpt lat="50.094172" lon="14.416305">
        <time>1970-01-01T00:00:00+00:00</time>
        <ele>209.0</ele>
      </trkpt>
      <trkpt lat="50.094193" lon="14.416291">
        <time>1970-01-01T00:00:00+00:00</time>
        <ele>209.0</ele>
      </trkpt>
      <trkpt lat="50.094231" lon="14.416384">
        <time>1970-01-01T00:00:00+00:00</time>
        <ele>209.0</ele>
      </trkpt>
      <trkpt lat="50.094342" lon="14.416641">
        <time>1970-01-01T00:00:00+00:00</time>
        <ele>209.0</ele>
      </trkpt>
      <trkpt lat="50.094499" lon="14.416869">
        <time>1970-01-01T00:00:00+00:00</time>
        <ele>215.0</ele>
      </trkpt>
      <trkpt lat="50.094684" lon="14.417046">
        <time>1970-01-01T00:00:00+00:00</time>
        <ele>224.0</ele>
      </trkpt>
      <trkpt lat="50.094705" lon="14.417032">
        <time>1970-01-01T00:00:00+00:00</time>
        <ele>225.0</ele>
      </trkpt>
      <trkpt lat="50.094707" lon="14.416806">
        <time>1970-01-01T00:00:00+00:00</time>
        <ele>227.0</ele>
      </trkpt>
      <trkpt lat="50.094708" lon="14.416723">
        <time>1970-01-01T00:00:00+00:00</time>
        <ele>227.0</ele>
      </trkpt>
      <trkpt lat="50.094757" lon="14.416716">
        <time>1970-01-01T00:00:00+00:00</time>
        <ele>229.0</ele>
      </trkpt>
      <trkpt lat="50.094784" lon="14.416713">
        <time>1970-01-01T00:00:00+00:00</time>
        <ele>229.0</ele>
      </trkpt>
      <trkpt lat="50.094907" lon="14.416698">
        <time>1970-01-01T00:00:00+00:00</time>
        <ele>232.0</ele>
      </trkpt>
      <trkpt lat="50.095002" lon="14.416686">
        <time>1970-01-01T00:00:00+00:00</time>
        <ele>233.0</ele>
      </trkpt>
      <trkpt lat="50.094954" lon="14.416546">
        <time>1970-01-01T00:00:00+00:00</time>
        <ele>234.0</ele>
      </trkpt>
      <trkpt lat="50.094938" lon="14.416488">
        <time>1970-01-01T00:00:00+00:00</time>
        <ele>234.0</ele>
      </trkpt>
      <trkpt lat="50.094919" lon="14.416376">
        <time>1970-01-01T00:00:00+00:00</time>
        <ele>234.0</ele>
      </trkpt>
      <trkpt lat="50.095223" lon="14.416326">
        <time>1970-01-01T00:00:00+00:00</time>
        <ele>235.0</ele>
      </trkpt>
      <trkpt lat="50.095301" lon="14.416201">
        <time>1970-01-01T00:00:00+00:00</time>
        <ele>235.0</ele>
      </trkpt>
      <trkpt lat="50.095263" lon="14.41598">
        <time>1970-01-01T00:00:00+00:00</time>
        <ele>235.0</ele>
      </trkpt>
      <trkpt lat="50.095318" lon="14.415953">
        <time>1970-01-01T00:00:00+00:00</time>
        <ele>235.0</ele>
      </trkpt>
      <trkpt lat="50.095329" lon="14.416011">
        <time>1970-01-01T00:00:00+00:00</time>
        <ele>235.0</ele>
      </trkpt>
      <trkpt lat="50.095338" lon="14.416056">
        <time>1970-01-01T00:00:00+00:00</time>
        <ele>235.0</ele>
      </trkpt>
      <trkpt lat="50.095347" lon="14.416105">
        <time>1970-01-01T00:00:00+00:00</time>
        <ele>235.0</ele>
      </trkpt>
      <trkpt lat="50.095571" lon="14.416214">
        <time>1970-01-01T00:00:00+00:00</time>
        <ele>234.0</ele>
      </trkpt>
      <trkpt lat="50.095686" lon="14.416283">
        <time>1970-01-01T00:00:00+00:00</time>
        <ele>233.0</ele>
      </trkpt>
      <trkpt lat="50.095711" lon="14.416295">
        <time>1970-01-01T00:00:00+00:00</time>
        <ele>233.0</ele>
      </trkpt>
      <trkpt lat="50.09573" lon="14.416305">
        <time>1970-01-01T00:00:00+00:00</time>
        <ele>233.0</ele>
      </trkpt>
      <trkpt lat="50.09573" lon="14.416305">
        <time>1970-01-01T00:00:00+00:00</time>
        <ele>233.0</ele>
      </trkpt>
      <trkpt lat="50.095711" lon="14.416295">
        <time>1970-01-01T00:00:00+00:00</time>
        <ele>233.0</ele>
      </trkpt>
      <trkpt lat="50.095686" lon="14.416283">
        <time>1970-01-01T00:00:00+00:00</time>
        <ele>233.0</ele>
      </trkpt>
      <trkpt lat="50.095571" lon="14.416214">
        <time>1970-01-01T00:00:00+00:00</time>
        <ele>234.0</ele>
      </trkpt>
      <trkpt lat="50.095347" lon="14.416105">
        <time>1970-01-01T00:00:00+00:00</time>
        <ele>235.0</ele>
      </trkpt>
      <trkpt lat="50.095338" lon="14.416056">
        <time>1970-01-01T00:00:00+00:00</time>
        <ele>235.0</ele>
      </trkpt>
      <trkpt lat="50.095329" lon="14.416011">
        <time>1970-01-01T00:00:00+00:00</time>
        <ele>235.0</ele>
      </trkpt>
      <trkpt lat="50.095318" lon="14.415953">
        <time>1970-01-01T00:00:00+00:00</time>
        <ele>235.0</ele>
      </trkpt>
      <trkpt lat="50.095263" lon="14.41598">
        <time>1970-01-01T00:00:00+00:00</time>
        <ele>235.0</ele>
      </trkpt>
      <trkpt lat="50.095206" lon="14.415692">
        <time>1970-01-01T00:00:00+00:00</time>
        <ele>235.0</ele>
      </trkpt>
      <trkpt lat="50.095139" lon="14.415408">
        <time>1970-01-01T00:00:00+00:00</time>
        <ele>235.0</ele>
      </trkpt>
      <trkpt lat="50.095046" lon="14.415123">
        <time>1970-01-01T00:00:00+00:00</time>
        <ele>236.0</ele>
      </trkpt>
      <trkpt lat="50.094965" lon="14.41511">
        <time>1970-01-01T00:00:00+00:00</time>
        <ele>236.0</ele>
      </trkpt>
      <trkpt lat="50.094664" lon="14.415429">
        <time>1970-01-01T00:00:00+00:00</time>
        <ele>233.0</ele>
      </trkpt>
      <trkpt lat="50.094626" lon="14.41533">
        <time>1970-01-01T00:00:00+00:00</time>
        <ele>232.0</ele>
      </trkpt>
      <trkpt lat="50.094604" lon="14.415272">
        <time>1970-01-01T00:00:00+00:00</time>
        <ele>233.0</ele>
      </trkpt>
      <trkpt lat="50.094581" lon="14.415121">
        <time>1970-01-01T00:00:00+00:00</time>
        <ele>233.0</ele>
      </trkpt>
      <trkpt lat="50.094503" lon="14.41522">
        <time>1970-01-01T00:00:00+00:00</time>
        <ele>231.0</ele>
      </trkpt>
      <trkpt lat="50.09441" lon="14.415341">
        <time>1970-01-01T00:00:00+00:00</time>
        <ele>229.0</ele>
      </trkpt>
      <trkpt lat="50.094388" lon="14.415372">
        <time>1970-01-01T00:00:00+00:00</time>
        <ele>228.0</ele>
      </trkpt>
      <trkpt lat="50.094353" lon="14.415416">
        <time>1970-01-01T00:00:00+00:00</time>
        <ele>227.0</ele>
      </trkpt>
      <trkpt lat="50.094315" lon="14.41536">
        <time>1970-01-01T00:00:00+00:00</time>
        <ele>227.0</ele>
      </trkpt>
      <trkpt lat="50.094214" lon="14.415206">
        <time>1970-01-01T00:00:00+00:00</time>
        <ele>227.0</ele>
      </trkpt>
      <trkpt lat="50.094189" lon="14.415213">
        <time>1970-01-01T00:00:00+00:00</time>
        <ele>227.0</ele>
      </trkpt>
      <trkpt lat="50.094142" lon="14.415554">
        <time>1970-01-01T00:00:00+00:00</time>
        <ele>219.0</ele>
      </trkpt>
      <trkpt lat="50.094135" lon="14.415885">
        <time>1970-01-01T00:00:00+00:00</time>
        <ele>213.0</ele>
      </trkpt>
      <trkpt lat="50.094176" lon="14.416176">
        <time>1970-01-01T00:00:00+00:00</time>
        <ele>211.0</ele>
      </trkpt>
      <trkpt lat="50.094193" lon="14.416291">
        <time>1970-01-01T00:00:00+00:00</time>
        <ele>209.0</ele>
      </trkpt>
      <trkpt lat="50.094172" lon="14.416305">
        <time>1970-01-01T00:00:00+00:00</time>
        <ele>209.0</ele>
      </trkpt>
      <trkpt lat="50.094021" lon="14.416403">
        <time>1970-01-01T00:00:00+00:00</time>
        <ele>202.0</ele>
      </trkpt>
      <trkpt lat="50.093962" lon="14.416442">
        <time>1970-01-01T00:00:00+00:00</time>
        <ele>199.0</ele>
      </trkpt>
      <trkpt lat="50.094033" lon="14.41669">
        <time>1970-01-01T00:00:00+00:00</time>
        <ele>200.0</ele>
      </trkpt>
      <trkpt lat="50.094023" lon="14.416695">
        <time>1970-01-01T00:00:00+00:00</time>
        <ele>200.0</ele>
      </trkpt>
      <trkpt lat="50.094002" lon="14.416706">
        <time>1970-01-01T00:00:00+00:00</time>
        <ele>199.0</ele>
      </trkpt>
      <trkpt lat="50.093921" lon="14.416752">
        <time>1970-01-01T00:00:00+00:00</time>
        <ele>195.0</ele>
      </trkpt>
      <trkpt lat="50.093909" lon="14.416758">
        <time>1970-01-01T00:00:00+00:00</time>
        <ele>195.0</ele>
      </trkpt>
      <trkpt lat="50.093897" lon="14.416765">
        <time>1970-01-01T00:00:00+00:00</time>
        <ele>194.0</ele>
      </trkpt>
      <trkpt lat="50.093883" lon="14.416743">
        <time>1970-01-01T00:00:00+00:00</time>
        <ele>194.0</ele>
      </trkpt>
      <trkpt lat="50.093831" lon="14.416697">
        <time>1970-01-01T00:00:00+00:00</time>
        <ele>192.0</ele>
      </trkpt>
      <trkpt lat="50.09376" lon="14.41668">
        <time>1970-01-01T00:00:00+00:00</time>
        <ele>190.0</ele>
      </trkpt>
      <trkpt lat="50.093743" lon="14.416691">
        <time>1970-01-01T00:00:00+00:00</time>
        <ele>190.0</ele>
      </trkpt>
      <trkpt lat="50.093753" lon="14.416727">
        <time>1970-01-01T00:00:00+00:00</time>
        <ele>190.0</ele>
      </trkpt>
      <trkpt lat="50.093793" lon="14.416856">
        <time>1970-01-01T00:00:00+00:00</time>
        <ele>190.0</ele>
      </trkpt>
      <trkpt lat="50.0938" lon="14.416879">
        <time>1970-01-01T00:00:00+00:00</time>
        <ele>190.0</ele>
      </trkpt>
      <trkpt lat="50.093822" lon="14.416861">
        <time>1970-01-01T00:00:00+00:00</time>
        <ele>191.0</ele>
      </trkpt>
      <trkpt lat="50.093878" lon="14.417118">
        <time>1970-01-01T00:00:00+00:00</time>
        <ele>190.0</ele>
      </trkpt>
      <trkpt lat="50.093915" lon="14.417385">
        <time>1970-01-01T00:00:00+00:00</time>
        <ele>188.0</ele>
      </trkpt>
    </trkseg>
  </trk>
</gpx>
